Starlink 11579

operational
NORAD ID: 63143 Int'l Des: 2025-043 Owner: SPXS Country: US Constellation: starlink
LEOCIRCULAR

Starlink 11579について

説明を読み込み中...

リアルタイム位置

3D地球を読み込み中...

次回通過

高度履歴

Altitude vs Time

uPlot chart will show altitude changes over time

軌道要素

1 63143U 25043M 25309.94236710 .00234066 00000-0 17721-2 0 9993
2 63143 43.0000 276.2846 0001267 249.4030 110.6702 15.70902591 39894
Epoch: Nov 5, 2025 • Age: 14 hours

現在のステータス

高度 361.1 km
速度 7.69 km/s
衛星直下点 -24.15°S, 15.43°E
打ち上げ日 Mar 3, 2025
運用期間 0.6 years
タイプ internet

技術仕様

分類 Payload
質量 960.00 kg
乾燥質量 910.00 kg
総質量 960.00 kg
長さ 0.30 m
直径 4.10 m
スパン 29.00 m
形状 Box + pan
製造者 SPXS
バスタイプ Starlink V2MD
フェーズステータス In Orbit
所有者/国 SPXS/US

大規模コンステレーション

Loading constellations...